Terug naar catalogus

STARLINK-34086

ActiefCommunicatieVLEO
NORAD 65734·PAYLOAD·🇺🇸 United States

Gelanceerd Sep 25, 2025 vanaf Cape Canaveral Space Force Station

Loading…

Volgende Passages (komende 24 uur)

TLE

VersSource: CelesTrak SupGP

Epoch: Sep 15, 2026, 02:53 UTC

1 65734C 25216A   26258.12062500 -.00033225  00000+0 -98173-3 0  2585
2 65734  53.1569 171.0314 0001280  83.7303 298.1370 15.34403896    12

Volg STARLINK-34086 in realtime met AllMySat

Download on the App Store